Location: Rancho Del Sol Observatory
(38.7214°N, 120.6350°W)
Time: 04:08:04
(UTC-07:00)

Cosmos 2221 Rocket - Visible Passes

Search period start: 06 May 2016 00:00
Search period end: 16 May 2016 00:00
Orbit: 620 x 650 km, 82.5° (Epoch: 05 May)

Date Brightness Start Highest point End Pass type
(mag) Time Alt. Az. Time Alt. Az. Time Alt. Az.
06 May 6.8 20:33:02 10° WSW 20:35:45 16° WNW 20:38:31 10° NNW visible
07 May 7.5 05:08:16 10° ENE 05:08:44 10° ENE 05:09:11 10° ENE visible
11 May 6.6 04:56:57 10° NNE 04:59:57 18° ENE 05:02:57 10° ESE visible
12 May 5.5 05:18:20 10° N 05:22:26 36° ENE 05:26:33 10° SE visible
14 May 6.7 04:26:07 10° NE 04:28:34 14° ENE 04:31:00 10° ESE visible
15 May 5.8 04:47:11 10° NNE 04:51:06 29° ENE 04:55:00 10° SE visible
